Weather History for Manchester, NH

Change the Weather History Date:

Thursday, December 13, 2012

  Actual Average Record
Temperature  
Mean Temperature 32 °F -  
Max Temperature 41 °F 36 °F 67 °F (1979)
Min Temperature 23 °F 16 °F -3 °F (1988)
Degree Days  
Heating Degree Days 33    
Moisture  
Dew Point 21 °F    
Average Humidity 74    
Maximum Humidity 88    
Minimum Humidity 43    
Precipitation  
Precipitation 0.00 in - - ()
Sea Level Pressure  
Sea Level Pressure 30.43 in    
Wind  
Wind Speed 1 mph (WSW)    
Max Wind Speed 5 mph    
Max Gust Speed -    
Visibility 9 miles    
Events      
Averages and records for this station are not official NWS values.
T = Trace of Precipitation, MM = Missing Value Source: NWS Daily Summary

Daily Weather History Graph

Daily Weather History Graph

Search for Another Location

Airport:

Trip Planner

Search our weather history database for the weather conditions in past years. The results will help you decide how hot, cold, wet, or windy it might be!

Date:

Astronomy

Dec. 13, 2012 Rise Set
Actual Time 7:08 AM EST 4:11 PM EST
Civil Twilight 6:36 AM EST 4:43 PM EST
Nautical Twilight 6:00 AM EST 5:19 PM EST
Astronomical Twilight 5:26 AM EST 5:54 PM EST
Moon 7:13 AM EST (12/13) 4:51 PM EST (12/13)
Length of Visible Light 10h 07m
Length of Day
9h 02m
New Moon, 0% of the Moon is Illuminated
Dec 13
New Moon
Dec 20
First Quarter
Dec 28
Full
Jan 4
Last Quarter
Jan 11
New

Hourly Weather History & Observations

Time (EST) Temp. Windchill Dew Point Humidity Pressure Visibility Wind Dir Wind Speed Gust Speed Precip Events Conditions
12:53 AM 25.0 °F - 21.9 °F 88% 30.46 in 10.0 mi Calm Calm - N/A   Clear
1:53 AM 24.1 °F - 21.0 °F 88% 30.46 in 9.0 mi Calm Calm - N/A   Mostly Cloudy
2:53 AM 25.0 °F - 21.9 °F 88% 30.46 in 10.0 mi Calm Calm - N/A   Overcast
3:53 AM 24.1 °F - 19.9 °F 84% 30.45 in 9.0 mi Calm Calm - N/A   Clear
4:53 AM 23.0 °F - 19.9 °F 88% 30.46 in 9.0 mi Calm Calm - N/A   Clear
5:53 AM 24.1 °F - 21.0 °F 88% 30.47 in 7.0 mi Calm Calm - N/A   Clear
6:53 AM 23.0 °F - 19.0 °F 85% 30.49 in 8.0 mi Calm Calm - N/A   Clear
7:53 AM 23.0 °F 18.4 °F 19.9 °F 88% 30.49 in 7.0 mi North 3.5 mph - N/A   Clear
8:53 AM 27.0 °F - 21.9 °F 81% 30.50 in 7.0 mi Calm Calm - N/A   Clear
9:53 AM 32.0 °F - 25.0 °F 75% 30.49 in 8.0 mi Calm Calm - N/A   Clear
10:53 AM 36.0 °F 33.3 °F 24.1 °F 62% 30.45 in 10.0 mi NNW 3.5 mph - N/A   Clear
11:53 AM 39.9 °F - 24.1 °F 53% 30.44 in 10.0 mi Calm Calm - N/A   Partly Cloudy
12:53 PM 39.9 °F - 21.0 °F 47% 30.43 in 10.0 mi Calm Calm - N/A   Partly Cloudy
1:53 PM 41.0 °F - 21.0 °F 45% 30.42 in 10.0 mi Calm Calm - N/A   Partly Cloudy
2:53 PM 41.0 °F 38.0 °F 19.9 °F 43% 30.41 in 10.0 mi SW 4.6 mph - N/A   Partly Cloudy
3:53 PM 39.9 °F 37.8 °F 19.9 °F 45% 30.40 in 10.0 mi South 3.5 mph - N/A   Clear
4:53 PM 33.1 °F 30.0 °F 23.0 °F 66% 30.39 in 10.0 mi ESE 3.5 mph - N/A   Clear
7:53 PM 30.2 °F - 21.2 °F 69% 30.32 in 10.0 mi Calm Calm - N/A   Clear
8:53 PM 26.1 °F - 21.9 °F 84% 30.37 in 10.0 mi Calm Calm - N/A   Clear
9:53 PM 25.0 °F - 21.0 °F 85% 30.35 in 10.0 mi Calm Calm - N/A   Clear
10:53 PM 25.0 °F - 21.0 °F 85% 30.34 in 9.0 mi Calm Calm - N/A   Clear
11:53 PM 25.0 °F - 21.9 °F 88% 30.32 in 8.0 mi Calm Calm - N/A   Clear